GW1395 Weather Reports


time (UTC)temp
C
wind
direction
speed
KPH
gust
KPH
rain 1hr
cm
rain 24hr
cm
rain mn
cm
humidity
%
barometer
mb
20260510230027 20 127 9.7 22.5 0.00 0.00 0.00 33 1024.9
20260510224526 20 95 12.9 27.4 0.00 0.00 0.00 33 1024.6
20260510223016 21 109 12.9 24.1 0.00 0.00 0.00 33 1024.9
20260510221529 21 123 8.0 24.1 0.00 0.00 0.00 33 1024.6
20260510220023 21 118 12.9 27.4 0.00 0.00 0.00 34 1024.9
20260510214509 21 78 11.3 25.7 0.00 0.00 0.00 33 1024.9
20260510213013 21 111 9.7 22.5 0.00 0.00 0.00 31 1024.9
20260510211516 21 97 12.9 24.1 0.00 0.00 0.00 32 1024.9
20260510210021 20 106 9.7 24.1 0.00 0.00 0.00 34 1025.0
20260510204525 20 104 11.3 22.5 0.00 0.00 0.00 35 1025.0
20260510203011 21 115 12.9 24.1 0.00 0.00 0.00 32 1025.0
20260510201514 21 161 8.0 22.5 0.00 0.00 0.00 30 1024.8
20260510200022 23 138 9.7 22.5 0.00 0.00 0.00 26 1024.4
20260510194527 24 130 8.0 19.3 0.00 0.00 0.00 25 1024.4
20260510193030 23 188 6.4 17.7 0.00 0.00 0.00 26 1024.4
20260510191512 22 109 4.8 17.7 0.00 0.00 0.00 28 1024.5
20260510190022 20 118 4.8 12.9 0.00 0.00 0.00 31 1024.8
20260510184531 20 113 3.2 8.0 0.00 0.00 0.00 31 1024.8
20260510183026 20 107 3.2 14.5 0.00 0.00 0.00 31 1024.9
20260510181526 21 115 6.4 12.9 0.00 0.00 0.00 29 1024.8
20260510180021 21 118 4.8 12.9 0.00 0.00 0.00 30 1024.9
20260510174523 20 128 4.8 14.5 0.00 0.00 0.00 32 1024.8
20260510173025 19 123 6.4 16.1 0.00 0.00 0.00 33 1024.7
20260510171528 20 99 4.8 16.1 0.00 0.00 0.00 31 1024.5
20260510170014 21 142 8.0 22.5 0.00 0.00 0.00 27 1024.4
20260510164519 22 94 6.4 20.9 0.00 0.00 0.00 25 1024.3
20260510163004 22 103 6.4 16.1 0.00 0.00 0.00 26 1024.3
20260510161509 22 96 4.8 16.1 0.00 0.00 0.00 26 1024.3
20260510160015 21 120 4.8 12.9 0.00 0.00 0.00 26 1024.2
20260510154518 21 101 6.4 16.1 0.00 0.00 0.00 27 1024.1
20260510153003 20 146 4.8 12.9 0.00 0.00 0.00 28 1024.0
20260510151507 20 140 8.0 14.5 0.00 0.00 0.00 29 1024.1
20260510150012 19 145 4.8 16.1 0.00 0.00 0.00 30 1024.0
20260510144522 19 167 6.4 20.9 0.00 0.00 0.00 30 1023.8
20260510143028 18 144 4.8 16.1 0.00 0.00 0.00 31 1023.7
20260510141509 18 107 4.8 9.7 0.00 0.00 0.00 30 1023.7
20260510140008 18 258 3.2 8.0 0.00 0.00 0.00 31 1023.5
20260510134513 17 165 1.6 3.2 0.00 0.00 0.00 32 1023.5
20260510133022 15 147 1.6 3.2 0.00 0.00 0.00 36 1023.4
20260510131523 13 130 0.0 3.2 0.00 0.00 0.00 37 1023.2
20260510130010 12 145 0.0 3.2 0.00 0.00 0.00 39 1023.1
20260510124512 13 145 0.0 3.2 0.00 0.00 0.00 37 1022.9
20260510123017 13 145 0.0 0.0 0.00 0.00 0.00 35 1022.7
20260510121522 14 145 0.0 3.2 0.00 0.00 0.00 33 1022.5
20260510120025 15 165 0.0 3.2 0.00 0.00 0.00 32 1022.3
20260510114511 15 174 1.6 8.0 0.00 0.00 0.00 32 1022.2
20260510113014 16 139 3.2 6.4 0.00 0.00 0.00 30 1022.2
20260510111518 16 172 1.6 9.7 0.00 0.00 0.00 29 1022.4
20260510110033 16 330 9.7 20.9 0.00 0.00 0.00 29 1022.7
20260510104527 15 261 1.6 3.2 0.00 0.00 0.00 27 1022.0
20260510103019 14 243 0.0 4.8 0.00 0.00 0.00 27 1021.7
20260510101519 13 198 0.0 3.2 0.00 0.00 0.00 28 1021.4
20260510100022 13 198 0.0 1.6 0.00 0.00 0.00 28 1021.3
20260510094525 13 119 0.0 4.8 0.00 0.00 0.00 28 1021.3
20260510093010 13 263 0.0 0.0 0.00 0.00 0.00 28 1021.2
20260510091518 13 263 0.0 3.2 0.00 0.00 0.00 27 1021.0
20260510090038 14 244 0.0 1.6 0.00 0.00 0.00 26 1021.1
20260510084523 14 228 1.6 6.4 0.00 0.00 0.00 26 1021.0
20260510083028 13 327 0.0 3.2 0.00 0.00 0.00 26 1020.6
20260510081514 13 327 0.0 3.2 0.00 0.00 0.00 27 1020.5
20260510080020 12 327 0.0 3.2 0.00 0.00 0.00 27 1020.4
20260510074524 12 327 0.0 3.2 0.00 0.00 0.00 26 1020.3
20260510073025 13 327 0.0 3.2 0.00 0.00 0.00 26 1020.4
20260510071511 13 327 0.0 1.6 0.00 0.00 0.00 25 1020.3
20260510070018 14 327 0.0 1.6 0.00 0.00 0.00 24 1020.2
20260510064504 15 334 0.0 3.2 0.00 0.00 0.00 23 1020.0
20260510063006 15 336 0.0 3.2 0.00 0.00 0.00 22 1020.0
20260510061510 16 331 0.0 4.8 0.00 0.00 0.00 21 1019.8
20260510060016 15 331 1.6 3.2 0.00 0.00 0.00 22 1019.7
20260510054523 15 325 0.0 3.2 0.00 0.00 0.00 22 1019.4
20260510053004 15 324 0.0 3.2 0.00 0.00 0.00 21 1019.3
20260510051507 15 342 0.0 3.2 0.00 0.00 0.00 21 1019.2
20260510050014 16 342 0.0 3.2 0.00 0.00 0.00 20 1019.1
20260510044524 17 342 0.0 3.2 0.00 0.00 0.00 19 1019.0
20260510043022 19 350 0.0 9.7 0.00 0.00 0.00 17 1018.9
20260510041507 19 343 4.8 9.7 0.00 0.00 0.00 17 1018.9
20260510040012 19 294 1.6 4.8 0.00 0.00 0.00 19 1019.1
20260510034516 20 275 1.6 3.2 0.00 0.00 0.00 17 1018.8
20260510033020 21 340 1.6 8.0 0.00 0.00 0.00 17 1018.7
20260510031525 20 254 3.2 14.5 0.00 0.00 0.00 18 1018.9
20260510030011 21 295 0.0 12.9 0.00 0.00 0.00 17 1018.8
20260510024519 21 336 8.0 20.9 0.00 0.00 0.00 17 1018.5
20260510023022 21 346 8.0 24.1 0.00 0.00 0.00 17 1018.4
20260510021528 22 342 1.6 4.8 0.00 0.00 0.00 17 1018.1
20260510020029 22 291 4.8 16.1 0.00 0.00 0.00 17 1017.9
20260510014510 22 342 4.8 12.9 0.00 0.00 0.00 16 1017.8
20260510013017 22 346 3.2 17.7 0.00 0.00 0.00 15 1017.7
20260510011520 23 252 3.2 12.9 0.00 0.00 0.00 14 1017.3
20260510010024 23 141 1.6 11.3 0.00 0.00 0.00 14 1017.1
20260510004510 24 254 4.8 11.3 0.00 0.00 0.00 13 1017.1
20260510003023 24 39 3.2 8.0 0.00 0.00 0.00 12 1017.2
20260510001518 25 325 1.6 6.4 0.00 0.00 0.00 12 1017.1
20260510000022 25 352 3.2 16.1 0.00 0.00 0.00 12 1017.1
20260509234526 26 296 8.0 14.5 0.00 0.00 0.00 11 1017.1
20260509233021 26 281 8.0 16.1 0.00 0.00 0.00 11 1017.3
20260509231516 26 236 4.8 12.9 0.00 0.00 0.00 11 1017.2